Starlink 6377

operational
NORAD ID: 57341 Int'l Des: 2023-099 Owner: SPXS Country: US Constellation: starlink
LEOCIRCULAR

Starlink 6377について

説明を読み込み中...

リアルタイム位置

3D地球を読み込み中...

次回通過

高度履歴

Altitude vs Time

uPlot chart will show altitude changes over time

軌道要素

1 57341U 23099P 26036.42651419 .00000372 00000-0 42633-4 0 9996
2 57341 43.0022 64.2511 0001137 260.3075 99.7638 15.02534548141260
Epoch: Feb 5, 2026 • Age: 30 hours

現在のステータス

高度 570.9 km
速度 7.58 km/s
衛星直下点 -41.28°S, 71.14°W
打ち上げ日 Jul 16, 2023
運用期間 2.5 years
タイプ internet

技術仕様

分類 Payload
質量 305.00 kg
乾燥質量 290.00 kg
総質量 305.00 kg
長さ 0.20 m
直径 2.80 m
スパン 9.00 m
形状 Box + pan
製造者 SPXS
バスタイプ Starlink
フェーズステータス In Orbit
所有者/国 SPXS/US

大規模コンステレーション

Loading constellations...